Location: Chateh
(58.6667°N, 118.6000°W)
Time: 08:15:29
(UTC+00:00)

Gurwin Techsat 1B - Pass Details

Date: 01 December 2023
Orbit: 810 x 813 km, 98.9° (Epoch: 04 March)

Event Time Altitude Azimuth Distance (km) Brightness Sun altitude
Rises 14:48:41 0° 19° (NNE) 3,350 11.8 -10.5°
Reaches altitude 10° 14:52:52 10° 347° (NNW) 2,416 10.7 -10.0°
Maximum altitude 14:54:24 11° 330° (NNW) 2,325 10.5 -9.8°
Enters shadow 14:55:40 10° 316° (NW) 2,385 10.5 -9.7°
